Regional Weather Roundup
Issued by NWS Lake Charles, LA

Home | Current Version | Previous Version | Text Only | Print | Product List | Glossary On
Versions: 1 2 3 4 5 6 7 8 9 10 11 12 13 14 15 16 17 18 19 20 21 22 23 24 25 26 27 28 29 30 31 32 33 34 35 36 37 38 39 40 41 42 43 44 45 46 47 48 49 50
000
ASUS44 KLCH 300810
RWRLCH
RWRLCH
REGIONAL WEATHER ROUNDUP
NATIONAL WEATHER SERVICE LAKE CHARLES LA
300 AM CDT THU JUL 30 2015

Note: "fair" indicates few or no clouds below 12,000 feet with no
significant weather and/or obstructions to visibility.


ACROSS SOUTHEAST TEXAS

CITY           SKY/WX    TMP DP  RH WIND       PRES   REMARKS
BEAUMONT       PTCLDY    78  76  93 CALM      30.00F
BEAUMONT CITY    N/A     79  76  90 W3        30.01F
ORANGE         PTSUNNY   81  81 100 CALM      30.02F
JASPER         MOCLDY    81  77  88 CALM      30.04S
$$

ACROSS CENTRAL LOUISIANA

CITY           SKY/WX    TMP DP  RH WIND       PRES   REMARKS
LEESVILLE      PTCLDY    79  75  87 NW2       30.00F
FULLERTON        N/A     77  74  90 CALM      29.99F
ALEXANDRIA INT   N/A    N/A N/A N/A MISG      29.99F
ESLER FIELD    PTCLDY    76  73  91 CALM      30.01F
DERIDDER         N/A     80  75  85 CALM      30.03F
OAKDALE        CLOUDY    78  76  94 CALM      30.00F
OPELOUSAS        N/A     77  75  93 CALM      30.00F
$$

ACROSS SOUTHWEST AND SOUTH CENTRAL LOUISIANA

CITY           SKY/WX    TMP DP  RH WIND       PRES   REMARKS
SULPHUR        PTSUNNY   82  78  88 W5        30.00F
LAKE CHARLES   MOCLDY    82  76  81 W3        29.99F
CHENNAULT INT  MOCLDY    84  75  74 W8        30.00F
CAMERON PHI    SUNNY     82  77  83 NW8       30.02F
DEQUINCY         N/A     78  77  97 CALM      30.01F
JENNINGS         N/A     78  76  94 CALM      30.00F
LAFAYETTE      CLOUDY    81  73  76 CALM      30.00S
NEW IBERIA     CLOUDY    80  76  87 CALM      30.00F
ABBEVILLE        N/A     77  75  92 CALM      30.00S
PATTERSON      MOCLDY    77  75  94 SE3       30.02S
SALT POINT       N/A     79  76  90 CALM      29.99S
$$

SELECTED SITES ACROSS THE REGION

CITY           SKY/WX    TMP DP  RH WIND       PRES   REMARKS
HOUSTON BUSH   CLEAR     82  76  81 CALM      30.02S
HOUSTON HOBBY  PTCLDY    81  76  84 SW5       30.01F
GALVESTON      CLEAR     83  78  85 W6        30.02F
COLLEGE STAT   CLEAR     80  72  76 S3        30.04S
CONROE         CLEAR     82  73  74 W5        30.04S
HUNTSVILLE     CLEAR     81  74  79 SW5       30.04S
LUFKIN         PTCLDY    77  72  84 CALM      30.02F
SHREVEPORT     PTCLDY    82  72  71 CALM      30.01F
MONROE         CLEAR     79  76  90 CALM      30.01F
NATCHEZ MS     PTCLDY    79  72  78 CALM      30.02F
BATON ROUGE    MOCLDY    78  75  90 CALM      30.00F
N.O. INTL ARPT PTCLDY    78  74  87 W6        29.99S
SLIDELL        PTCLDY    75  75 100 CALM      29.98F
$$

MARINE REPORTS

STATION/POSITION TIME  TEMP    WIND        PRES    VSBY  WAVE
                       AIR SEA DIR/SP/G                  HT/PER
                 (UTC) (F)     (DEG/KT/KT) (MB)    (MI)  (FT/S)
BUOY 30 S HIGH I 0750   85 86  280/ 12/ 14 1015.6F         2/ 6
SEA RIM ST PARK  0800   80     290/  6/  7 1016.6F
PORT ARTHUR      0700      89                N/A
SABINE PASS N    0700   83 89                N/A
TEXAS POINT      NOT AVBL
CALCASIEU PASS   0700   85 91                N/A
LK CHARLES BEACH 0700   85 91                N/A
MARSH ISLAND     0700   86      50/  4/  6   N/A           0
FRESH WATER LOCK 0700   82 90                N/A
AMERADA PASS     NOT AVBL
$$


USA.gov is the U.S. government's official web portal to all federal, state and local government web resources and services.